When you browse on this site, cookies collect data to enhance your experience and personalize the content and advertising you see.
Visit our Privacy Policy to learn more. By continuing to use the site, you agree to this use of cookies and data.
  • In Portugal
  • List of Countries
  • For 7 days
  • Water Temperature
  • Weather Map
  • Weather Widgets
  • user-avatar
    Login

    Hourly Weather Namibe

    Today, 28 January, Tuesday

    Time Temperature Precipitation Wind Pressure Humidity
    00:00 +28°C° 0.1 mm 1 mps 757 mmHg 73%
    01:00 +28°C° 0 mm 1 mps 757 mmHg 75%
    02:00 +28°C° 0 mm 1 mps 757 mmHg 76%
    03:00 +28°C° 0 mm 2 mps 757 mmHg 77%
    04:00 +28°C° 0 mm 2 mps 756 mmHg 77%
    05:00 +27°C° 0 mm 2 mps 757 mmHg 78%
    06:00 +27°C° 0 mm 2 mps 757 mmHg 78%
    07:00 +27°C° 0 mm 2 mps 757 mmHg 78%
    08:00 +28°C° 0 mm 2 mps 757 mmHg 75%
    09:00 +29°C° 0 mm 2 mps 758 mmHg 72%
    10:00 +29°C° 0 mm 2 mps 758 mmHg 70%
    11:00 +30°C° 0 mm 3 mps 757 mmHg 67%
    12:00 +31°C° 0 mm 3 mps 757 mmHg 65%
    13:00 +31°C° 0 mm 3 mps 756 mmHg 65%
    14:00 +30°C° 0 mm 4 mps 756 mmHg 67%
    15:00 +30°C° 0 mm 4 mps 755 mmHg 69%
    16:00 +29°C° 0 mm 4 mps 755 mmHg 70%
    17:00 +29°C° 0.1 mm 4 mps 755 mmHg 72%
    18:00 +28°C° 0.1 mm 4 mps 755 mmHg 73%
    19:00 +28°C° 0.1 mm 4 mps 756 mmHg 74%
    20:00 +28°C° 1.2 mm 4 mps 756 mmHg 73%
    21:00 +28°C° 1.2 mm 3 mps 757 mmHg 72%
    22:00 +28°C° 1.2 mm 3 mps 757 mmHg 70%
    23:00 +28°C° 0.2 mm 3 mps 757 mmHg 69%

    Tomorrow, 29 January, Wednesday

    Time Temperature Precipitation Wind Pressure Humidity
    00:00 +28°C° 0.2 mm 2 mps 757 mmHg 68%
    01:00 +28°C° 0.2 mm 2 mps 757 mmHg 67%
    02:00 +28°C° 0.1 mm 2 mps 756 mmHg 68%
    03:00 +28°C° 0.1 mm 2 mps 756 mmHg 70%
    04:00 +27°C° 0.1 mm 2 mps 756 mmHg 71%
    05:00 +27°C° 0.2 mm 2 mps 756 mmHg 73%
    06:00 +27°C° 0.2 mm 1 mps 756 mmHg 74%
    07:00 +27°C° 0.2 mm 1 mps 757 mmHg 76%
    08:00 +28°C° 0.4 mm 2 mps 757 mmHg 73%
    09:00 +29°C° 0.4 mm 2 mps 758 mmHg 70%
    10:00 +30°C° 0.4 mm 3 mps 758 mmHg 68%
    11:00 +30°C° 0 mm 4 mps 757 mmHg 66%
    12:00 +30°C° 0 mm 4 mps 757 mmHg 65%
    13:00 +32°C° 0 mm 5 mps 757 mmHg 63%
    14:00 +30°C° 0 mm 5 mps 756 mmHg 64%
    15:00 +30°C° 0 mm 5 mps 756 mmHg 65%
    16:00 +30°C° 0 mm 5 mps 756 mmHg 66%
    17:00 +29°C° 0.2 mm 5 mps 756 mmHg 69%
    18:00 +28°C° 0.2 mm 4 mps 757 mmHg 72%
    19:00 +27°C° 0.2 mm 4 mps 758 mmHg 76%
    20:00 +27°C° 0.4 mm 3 mps 758 mmHg 76%
    21:00 +27°C° 0.4 mm 3 mps 759 mmHg 77%
    22:00 +27°C° 0.4 mm 3 mps 759 mmHg 77%
    23:00 +27°C° 0.4 mm 2 mps 759 mmHg 77%

    Day after tomorrow, 30 January, Thursday

    Time Temperature Precipitation Wind Pressure Humidity
    00:00 +27°C° 0.4 mm 2 mps 759 mmHg 78%
    01:00 +27°C° 0.4 mm 1 mps 758 mmHg 78%
    02:00 +26°C° 0.6 mm 1 mps 758 mmHg 79%
    03:00 +26°C° 0.6 mm 1 mps 758 mmHg 80%
    04:00 +26°C° 0.6 mm 1 mps 757 mmHg 81%
    05:00 +27°C° 0.4 mm 1 mps 758 mmHg 80%
    06:00 +27°C° 0.4 mm 1 mps 758 mmHg 79%
    07:00 +25°C° 0.4 mm 0 mps 758 mmHg 78%
    08:00 +28°C° 0 mm 1 mps 758 mmHg 75%
    09:00 +29°C° 0 mm 2 mps 758 mmHg 73%
    10:00 +29°C° 0 mm 2 mps 759 mmHg 70%
    11:00 +30°C° 0 mm 3 mps 758 mmHg 68%
    12:00 +31°C° 0 mm 3 mps 758 mmHg 66%
    13:00 +32°C° 0 mm 4 mps 757 mmHg 64%
    14:00 +32°C° 0 mm 4 mps 757 mmHg 66%
    15:00 +30°C° 0 mm 4 mps 757 mmHg 68%
    16:00 +30°C° 0 mm 4 mps 756 mmHg 70%
    17:00 +29°C° 0.1 mm 4 mps 757 mmHg 73%
    18:00 +28°C° 0.1 mm 4 mps 757 mmHg 76%
    19:00 +28°C° 0.1 mm 3 mps 758 mmHg 79%
    20:00 +27°C° 0.3 mm 3 mps 759 mmHg 79%
    21:00 +27°C° 0.3 mm 3 mps 759 mmHg 79%
    22:00 +27°C° 0.3 mm 2 mps 760 mmHg 80%
    23:00 +27°C° 0.2 mm 2 mps 759 mmHg 80%

    31 January, Friday

    Time Temperature Precipitation Wind Pressure Humidity
    00:00 +27°C° 0.2 mm 2 mps 759 mmHg 80%
    01:00 +27°C° 0.2 mm 2 mps 759 mmHg 80%
    02:00 +27°C° 0.3 mm 2 mps 759 mmHg 80%
    03:00 +27°C° 0.3 mm 2 mps 758 mmHg 80%
    04:00 +27°C° 0.3 mm 1 mps 758 mmHg 80%
    05:00 +27°C° 0.5 mm 1 mps 758 mmHg 81%
    06:00 +27°C° 0.5 mm 1 mps 759 mmHg 81%
    07:00 +27°C° 0.5 mm 1 mps 759 mmHg 82%
    08:00 +28°C° 0.1 mm 1 mps 759 mmHg 79%
    09:00 +28°C° 0.1 mm 1 mps 759 mmHg 75%
    10:00 +29°C° 0.1 mm 1 mps 759 mmHg 72%
    11:00 +30°C° 0 mm 2 mps 758 mmHg 69%
    12:00 +30°C° 0 mm 2 mps 758 mmHg 67%
    13:00 +31°C° 0 mm 3 mps 757 mmHg 65%
    14:00 +32°C° 0 mm 4 mps 757 mmHg 66%
    15:00 +30°C° 0 mm 4 mps 756 mmHg 68%
    16:00 +30°C° 0 mm 4 mps 756 mmHg 69%
    17:00 +29°C° 0 mm 4 mps 756 mmHg 73%
    18:00 +28°C° 0 mm 4 mps 757 mmHg 76%
    19:00 +28°C° 0 mm 4 mps 757 mmHg 79%
    20:00 +28°C° 0 mm 4 mps 758 mmHg 78%
    21:00 +28°C° 0 mm 4 mps 758 mmHg 77%
    22:00 +28°C° 0 mm 3 mps 758 mmHg 76%
    23:00 +27°C° 0.4 mm 3 mps 758 mmHg 78%

    1 February, Saturday

    Time Temperature Precipitation Wind Pressure Humidity
    00:00 +27°C° 0.4 mm 3 mps 758 mmHg 79%
    01:00 +26°C° 0.4 mm 3 mps 758 mmHg 80%
    02:00 +26°C° 0 mm 2 mps 758 mmHg 80%
    03:00 +26°C° 0 mm 2 mps 757 mmHg 80%
    04:00 +26°C° 0 mm 2 mps 757 mmHg 79%
    05:00 +26°C° 0 mm 2 mps 757 mmHg 79%
    06:00 +26°C° 0 mm 2 mps 758 mmHg 79%
    07:00 +26°C° 0 mm 2 mps 758 mmHg 79%
    08:00 +27°C° 0 mm 2 mps 758 mmHg 74%
    09:00 +29°C° 0 mm 2 mps 758 mmHg 70%
    10:00 +30°C° 0 mm 3 mps 758 mmHg 65%
    11:00 +30°C° 0 mm 3 mps 758 mmHg 64%
    12:00 +32°C° 0 mm 4 mps 757 mmHg 62%
    13:00 +32°C° 0 mm 4 mps 757 mmHg 60%
    14:00 +32°C° 0 mm 4 mps 756 mmHg 61%
    15:00 +30°C° 0 mm 4 mps 756 mmHg 63%
    16:00 +30°C° 0 mm 4 mps 755 mmHg 64%
    17:00 +29°C° 0 mm 4 mps 756 mmHg 67%
    18:00 +29°C° 0 mm 4 mps 756 mmHg 69%
    19:00 +28°C° 0 mm 5 mps 757 mmHg 72%
    20:00 +28°C° 0 mm 4 mps 757 mmHg 72%
    21:00 +28°C° 0 mm 4 mps 758 mmHg 72%
    22:00 +28°C° 0 mm 3 mps 758 mmHg 72%
    23:00 +27°C° 0 mm 3 mps 758 mmHg 73%

    2 February, Sunday

    Time Temperature Precipitation Wind Pressure Humidity
    00:00 +27°C° 0 mm 3 mps 758 mmHg 73%
    01:00 +27°C° 0 mm 3 mps 758 mmHg 74%
    02:00 +27°C° 0 mm 3 mps 757 mmHg 74%
    03:00 +26°C° 0 mm 2 mps 757 mmHg 73%
    04:00 +26°C° 0 mm 2 mps 757 mmHg 73%
    05:00 +26°C° 0 mm 2 mps 757 mmHg 74%
    06:00 +26°C° 0 mm 2 mps 758 mmHg 74%
    07:00 +26°C° 0 mm 2 mps 758 mmHg 74%
    08:00 +27°C° 0 mm 2 mps 758 mmHg 71%
    09:00 +28°C° 0 mm 2 mps 758 mmHg 68%
    10:00 +29°C° 0 mm 2 mps 759 mmHg 65%
    11:00 +29°C° 0 mm 3 mps 758 mmHg 64%
    12:00 +30°C° 0 mm 3 mps 758 mmHg 63%
    13:00 +30°C° 0 mm 4 mps 757 mmHg 62%
    14:00 +30°C° 0 mm 4 mps 757 mmHg 64%
    15:00 +30°C° 0 mm 4 mps 757 mmHg 65%
    16:00 +29°C° 0 mm 4 mps 756 mmHg 66%
    17:00 +28°C° 0 mm 4 mps 757 mmHg 69%
    18:00 +28°C° 0 mm 4 mps 757 mmHg 71%
    19:00 +27°C° 0 mm 4 mps 757 mmHg 74%
    20:00 +27°C° 0 mm 4 mps 758 mmHg 74%
    21:00 +27°C° 0 mm 4 mps 758 mmHg 73%
    22:00 +26°C° 0 mm 4 mps 759 mmHg 73%
    23:00 +26°C° 0 mm 3 mps 758 mmHg 72%
    Show more